Redwood Falls, MN

1:47 PM CDT on March 28, 2017 (GMT -0500)
Redwood Falls Municipal

Weather History for KRWF - November, 2012

Change the Weather History Date:

Wednesday, November 14, 2012

  Actual Average Record
Temperature  
Mean Temperature 40 °F -  
Max Temperature 53 °F 40 °F 70 °F (1990)
Min Temperature 27 °F 26 °F -8 °F (1959)
Degree Days  
Heating Degree Days 25    
Moisture  
Dew Point 30 °F    
Average Humidity 69    
Maximum Humidity 92    
Minimum Humidity 45    
Precipitation  
Precipitation 0.00 in - - ()
Sea Level Pressure  
Sea Level Pressure 30.22 in    
Wind  
Wind Speed 5 mph (South)    
Max Wind Speed 12 mph    
Max Gust Speed -    
Visibility 10 miles    
Events      
Averages and records for this station are not official NWS values.
T = Trace of Precipitation, MM = Missing Value Source: NWS Daily Summary

Daily Weather History Graph

Daily Weather History Graph

Search for Another Location

Airport or City:

Trip Planner

Search our weather history database for the weather conditions in past years. The results will help you decide how hot, cold, wet, or windy it might be!

Date:

Astronomy

Nov. 14, 2012 Rise Set
Actual Time 7:16 AM CST 4:53 PM CST
Civil Twilight 6:44 AM CST 5:24 PM CST
Nautical Twilight 6:09 AM CST 5:59 PM CST
Astronomical Twilight 5:35 AM CST 6:34 PM CST
Moon 8:08 AM CST (11/14) 5:40 PM CST (11/14)
Length of Visible Light 10h 39m
Length of Day
9h 36m
New Moon, 1% of the Moon is Illuminated
Nov 14
New Moon
Nov 20
First Quarter
Nov 28
Full
Dec 6
Last Quarter
Dec 13
New

Hourly Weather History & Observations

Time (CST) Temp. Windchill Dew Point Humidity Pressure Visibility Wind Dir Wind Speed Gust Speed Precip Events Conditions
12:53 AM 34.0 °F 31.0 °F 28.9 °F 82% 30.25 in 10.0 mi South 3.5 mph - N/A   Overcast
1:53 AM 33.1 °F - 28.0 °F 82% 30.26 in 10.0 mi Calm Calm - N/A   Partly Cloudy
2:53 AM 33.1 °F - 28.0 °F 82% 30.26 in 10.0 mi Calm Calm - N/A   Mostly Cloudy
3:53 AM 30.9 °F - 28.0 °F 89% 30.27 in 10.0 mi Calm Calm - N/A   Clear
4:53 AM 30.9 °F - 27.0 °F 85% 30.27 in 10.0 mi Calm Calm - N/A   Clear
5:53 AM 28.0 °F 24.2 °F 26.1 °F 92% 30.28 in 8.0 mi South 3.5 mph - N/A   Clear
6:53 AM 27.0 °F 20.5 °F 24.1 °F 89% 30.27 in 10.0 mi South 5.8 mph - N/A   Clear
7:53 AM 28.9 °F 21.1 °F 25.0 °F 85% 30.28 in 10.0 mi South 8.1 mph - N/A   Clear
8:53 AM 35.1 °F 30.1 °F 28.0 °F 76% 30.27 in 10.0 mi South 5.8 mph - N/A   Clear
9:53 AM 39.9 °F 35.1 °F 28.9 °F 65% 30.27 in 10.0 mi South 6.9 mph - N/A   Clear
10:53 AM 46.0 °F 42.5 °F 28.9 °F 51% 30.26 in 10.0 mi SSW 6.9 mph - N/A   Clear
11:53 AM 46.9 °F - 30.9 °F 54% 30.24 in 10.0 mi SSW 6.9 mph - N/A   Clear
12:53 PM 51.1 °F - 33.1 °F 50% 30.22 in 10.0 mi South 6.9 mph - N/A   Clear
1:53 PM 53.1 °F - 32.0 °F 45% 30.20 in 10.0 mi SSW 10.4 mph - N/A   Clear
2:53 PM 53.1 °F - 32.0 °F 45% 30.18 in 10.0 mi South 8.1 mph - N/A   Clear
3:53 PM 53.1 °F - 33.1 °F 47% 30.17 in 10.0 mi South 5.8 mph - N/A   Clear
4:53 PM 48.0 °F - 32.0 °F 54% 30.16 in 10.0 mi SSW 5.8 mph - N/A   Clear
5:53 PM 44.1 °F 41.5 °F 33.1 °F 65% 30.17 in 10.0 mi South 4.6 mph - N/A   Clear
6:53 PM 44.1 °F 39.5 °F 33.1 °F 65% 30.17 in 10.0 mi South 8.1 mph - N/A   Overcast
7:53 PM 43.0 °F 38.8 °F 32.0 °F 65% 30.17 in 10.0 mi South 6.9 mph - N/A   Overcast
8:53 PM 42.1 °F 37.1 °F 30.9 °F 65% 30.16 in 10.0 mi South 8.1 mph - N/A   Mostly Cloudy
9:53 PM 39.9 °F 33.4 °F 32.0 °F 73% 30.16 in 10.0 mi SSW 10.4 mph - N/A   Mostly Cloudy
10:53 PM 41.0 °F 34.3 °F 32.0 °F 70% 30.13 in 10.0 mi South 11.5 mph - N/A   Scattered Clouds
11:53 PM 41.0 °F 34.7 °F 32.0 °F 70% 30.13 in 10.0 mi South 10.4 mph - N/A   Overcast